Location: Shannon
(40.5500°S, 175.4167°E)
Time: 21:21:10
(UTC+00:00)

ARIANE 5 R/B - Pass Details

Date: 17 November 2025
Orbit: 614 x 648 km, 98.0° (Epoch: 14 September)

Event Time Altitude Azimuth Distance (km) Brightness Sun altitude
Rises 12:48:28 0° 174° (S) 3,001 7.3 -29.4°
Reaches altitude 10° 12:50:46 10° 180° (S) 2,083 6.1 -29.3°
Enters shadow 12:54:02 38° 214° (SSW) 1,002 3.8 -29.2°
